OBJECT F, 44315

Orbit data source: Space-Track

You're viewing an Uncataloged Satellite

Recently launched and/or uncataloged satellites may have evolving metadata. Metadata may include but not limited to: Owner, Maufacturer, Bus, Motor, and Mission.

OBJECT F, 44315 is a satellite owned by Changguang WJ (CN) in LEO that was launched on Wed, 05 Jun 2019 UTC via a CHANG ZHENG 11 launch vehicle from the Yellow Sea Launch Area, China (YSLA). Unknown objects in Earth's orbit typically refer to objects detected orbiting the Earth but have not yet been identified or cataloged. These objects could be anything from previously untracked satellites, spent rocket stages, debris from satellite collisions, or even natural meteoroids temporarily captured by Earth's gravity.

Loading next visibility...
Identifier
44315, 2019-032F
Orbit
LEO
Last TLE update
8 hours ago
Origin
Flag of CNCGSTL (CN / PRC)
Manufacturer
CIOMP
Mission
Commercial Imaging
Bus & Motor
JL-1, Unknown motor
Mass
39 kg wet, 39 kg dry
Launch date (UTC)
2019-06-05 (6 years ago)
Launch vehicle
CHANG ZHENG 11
Launch site
Yellow Sea Launch Area, China (YSLA)
Object type
Unknown
Shape & HBR
Box + 2 Pan, 1.5 m
Radar Cross Section
2.000 m², Medium (>0.1 m² and < 1m²)

Expand to show TLE details & history

TLE from 8 hours ago
0 OBJECT F
1 44315U 19032F   25128.91537368  .00027967  00000-0  76198-3 0  9997
2 44315  44.9869 359.2141 0016085 196.5810 163.4552 15.36920543326571
Epoch: 2025-05-08T21:58Z
Definitive object data (Epoch: 2025-05-08T21:58:08.285Z)
Latitude
-0.00005°
Longitude
162.70051°
Altitude
465.756 km
Speed
7.629 km/s
True Right ascension
23h 56m 51s
True Declination
0° 00' 00"
Sunlit
Object was in daylight at TLE epoch
Visualization TLE readout
Latitude
21.66037°
Longitude
-175.85761°
Altitude
465.589 km
Speed
7.631 km/s
Apparent Right ascension
01h 40m 11s
Apparent Declination
-7° 54' 49"
Sunlit
Object is in daylight
Visualization observer readout
Local Sidereal Time
14:03:00
Azimuth
10.589° NNE
Elevation
-57.593°
Doppler factor
1
Orbital elements
Apogee altitude
467.834 km
Perigee altitude
445.846 km
Semi-major axis
6,834.977 km
Eccentricity
0.0016085
Inclination
44.9869°
RAAN
359.2141°
Arg. of periapsis
196.581°
True anomaly
163.50759°
Mean anomaly
163.4552°
Eccentric anomaly
163.4814°
Mean motion
3.84094 °/min
BSTAR
0.00076198
Orbital period
93.73 mins
Loading maneuver chart data...
Loading SW <> Apogee altitude chart data...
Loading historical data...
Loading historical data...
Loading historical data...
Loading historical data...
Loading historical data...
Loading historical data...
Loading historical data...

OBJECT F Visibility forecast

Observer location: undefined°, undefined°

Span
Click to sort rows by Start time (UTC) header in descending order
Start Az.
Max El. time (UTC)
Max El. Az.
Max El.
End time (UTC)
End Az.
6 mins2025-05-09 18:27:15.878Z217.25° SW2025-05-09 18:30:15.878Z126.465° SE34.242°2025-05-09 18:33:15.878Z75.613° E
5 mins2025-05-09 20:06:15.878Z283.033° WNW2025-05-09 20:08:15.878Z0.17° NNE36.202°2025-05-09 20:11:15.878Z60.586° ENE
4 mins2025-05-09 21:45:15.878Z319.038° NNW2025-05-09 21:46:15.878Z349.436° N29.844°2025-05-09 21:49:15.878Z67.731° E
5 mins2025-05-09 23:23:15.878Z298.312° NW2025-05-09 23:25:15.878Z64.954° ENE44.04°2025-05-09 23:28:15.878Z109.309° ESE
4 mins2025-05-10 01:01:15.878Z254.12° W2025-05-10 01:03:15.878Z210.065° SW19.004°2025-05-10 01:05:15.878Z172.714° S
|